CZ-4C R/B

Satellite information

Favourite Embed

Satellite Type and Status

ROCKET BODYIN ORBIT

Key statistics

Satellite CZ-4C R/B at a glance.

Uptime

3315

Days in orbit

Revolutions

≈ 14.7

Per day

Orbit

SSO

Sun Synchronous Orbit

Inclination

98.0

Latest

Satellite identification and parameters

Extended collection of information and parameters for CZ-4C R/B.

Object identification

Identified? True

Debris? False

Object name: CZ-4C R/B

International designator: 2016-049B

Object number (NORAD): 41728

Object ID (CCSDS): 41728

Country: PEOPLES REPUBLIC OF CHINA (PRC)

Current information (Y/N): Y

RCS size: LARGE

Orbital parameters

Period: 97.888 minutes

Inclination: 97.9999 deg

SMA: 7035.799 km

Apoapsis: 727.36 km

Periapsis: 587.968 km

RAAN: 315.4154 deg

Eccentricy: 0.00990588

Argument of periapsis: 19.2299 deg

Mean anomaly: 341.2604 deg

Mean motion: 14.71067654 rev/day

Mean motion (dot): 0.00001178 rev/day2

B* drag term: 0.00018594395 1/REarth

Two-line elements (TLE)

Creation date: Sept. 6, 2025, 2:09 a.m.

Reference frame: TEME

Reference center: EARTH

Epoch: Sept. 5, 2025, 5:39 p.m. UTC

TLE line 0: 0 CZ-4C R/B

TLE line 1: 1 41728U 16049B 25248.73611090 .00001178 00000-0 18594-3 0 9997

TLE line 2: 2 41728 97.9999 315.4154 0099059 19.2299 341.2604 14.71067654486305

Live tracking on map

Real-time ground track for satellite CZ-4C R/B.

In-orbit conjunctions

A list of the most updated potential collisions computed for object CZ-4C R/B.

Target Orbit TCA Probability of collision Miss distance Type
PEGASUS DEB LEO 2025-07-24 06:44:33 0.0004029121 49.0 (m) DEBRIS
USA 40 R/B DEB HEO 2024-11-14 00:31:51 0.0001238999 940.0 (m) DEBRIS
NOAA 17 DEB SSO 2024-11-09 02:34:20 0.0002558271 93.0 (m) DEBRIS
COSMOS 2251 DEB LEO 2024-11-02 13:30:33 0.0008716903 30.0 (m) DEBRIS

Associated space launch

Gaofen 3 is the first medium-sized and long life (8 years) civil satellite of China. The satellite is a C-band Synthetic Aperture Radar capable of up to 1m ground resolution.

CZ-4C R/B was lifted into orbit during the mission ‘Long March 4C | Gaofen 3’, on board a Long March 4C space rocket.

The launch took place on Aug. 9, 2016, 10:55 p.m. from Launch Complex 9.

For more information about the launch, click the button.

Launch to space Long March 4C | Gaofen 3
Long March 4C | Gaofen 3

Agency: N/A

Status: Launch Successful

Launch date: Aug. 9, 2016, 10:55 p.m. UTC

Rocket: Long March 4C

Launch pad: Launch Complex 9

Location: Taiyuan Satellite Launch Center, People's Republic of China

...

Latest news about this satellite

There are no fresh news available about this satellite. Check back as we update our databases every day.


Newsletter sign-up

Weekly statistics, charts and insights to help you stay on top of the space industry.